Back to catalog

SL-12 R/B(2)

AliveGEO
NORAD 28704·ROCKET BODY·🇷🇺 Russia

Launched Jun 24, 2005 from Baikonur Cosmodrome

Loading…

TLE

FreshSource: Space-Track

Epoch: Sep 13, 2026, 23:59 UTC

1 28704U 05023H   26256.99956130  .00000104  00000-0  00000-0 0  9999
2 28704  12.9991  18.1560 0011027 329.3761  18.9166  1.00806650 78098

Track SL-12 R/B(2) in real time with AllMySat

Download on the App Store